Starlink 30414

operational
NORAD ID: 57859 Int'l Des: 2023-141 Owner: SPXS Country: US Constellation: starlink
LEOCIRCULAR

关于 Starlink 30414

正在加载描述...

实时位置

正在加载3D地球...

即将过境

高度历史

Altitude vs Time

uPlot chart will show altitude changes over time

两行轨道根数

1 57859U 23141V 25351.60493708 -.00000787 00000-0 -14457-4 0 9997
2 57859 53.1632 305.1722 0001369 101.2371 258.8784 15.30189980127769
Epoch: Dec 17, 2025 • Age: 18 hours

当前状态

高度 478.6 km
速度 7.63 km/s
星下点 42.85°N, 133.57°W
发射日期 Sep 12, 2023
运行时间 2.2 years
类型 internet

技术详情

分类 Payload
质量 730.00 kg
干质量 700.00 kg
总质量 730.00 kg
长度 0.30 m
直径 4.10 m
跨度 29.00 m
形状 Box + pan
制造商 SPXS
平台类型 Starlink V2M
阶段状态 In Orbit
所有者/国家 SPXS/US

大型星座

Loading constellations...